Time,TemperatureF,DewpointF,PressureIn,WindDirection,WindDirectionDegrees,WindSpeedMPH,WindSpeedGustMPH,Humidity,HourlyPrecipIn,Conditions,Clouds,dailyrainin,SoftwareType,DateUTC
2013-04-01 00:03:00,54.8,51.9,30.04,West,259,0.0,0.0,90,0.00,,OVC085,0.00,VWS V14.01,2013-04-01 07:03:00,
2013-04-01 00:08:00,54.7,51.8,30.04,West,259,0.0,0.0,90,0.00,,OVC085,0.00,VWS V14.01,2013-04-01 07:08:00,
2013-04-01 00:13:00,54.7,51.8,30.04,West,277,0.0,1.0,90,0.00,,OVC085,0.00,VWS V14.01,2013-04-01 07:13:00,
2013-04-01 00:19:00,54.7,51.8,30.04,West,268,0.0,1.0,90,0.00,,OVC085,0.00,VWS V14.01,2013-04-01 07:19:00,
2013-04-01 00:24:00,54.7,51.5,30.04,South,186,0.0,2.0,89,0.00,,OVC085,0.00,VWS V14.01,2013-04-01 07:24:00,
2013-04-01 00:28:00,54.8,51.6,30.04,South,181,1.0,2.0,89,0.00,,OVC085,0.00,VWS V14.01,2013-04-01 07:28:00,
2013-04-01 00:34:00,54.8,51.6,30.04,SSE,166,0.0,1.0,89,0.00,,OVC085,0.00,VWS V14.01,2013-04-01 07:34:00,
2013-04-01 00:39:00,54.8,51.6,30.04,SSW,212,0.0,1.0,89,0.00,,OVC085,0.00,VWS V14.01,2013-04-01 07:39:00,
2013-04-01 00:44:00,54.8,51.6,30.04,SW,225,0.0,1.0,89,0.00,,OVC085,0.00,VWS V14.01,2013-04-01 07:44:00,
2013-04-01 00:49:00,54.7,51.5,30.04,SW,225,0.0,1.0,89,0.00,,OVC085,0.00,VWS V14.01,2013-04-01 07:49:00,
2013-04-01 00:54:00,54.7,51.8,30.05,SW,225,0.0,1.0,90,0.00,,OVC085,0.00,VWS V14.01,2013-04-01 07:54:00,
2013-04-01 00:59:00,54.7,51.8,30.05,SW,225,0.0,1.0,90,0.00,,OVC085,0.00,VWS V14.01,2013-04-01 07:59:00,
2013-04-01 01:04:00,54.5,51.6,30.05,SW,225,0.0,0.0,90,0.00,,OVC070,0.00,VWS V14.01,2013-04-01 08:04:00,
2013-04-01 01:09:00,54.5,51.6,30.05,SW,225,0.0,0.0,90,0.00,,OVC070,0.00,VWS V14.01,2013-04-01 08:09:00,
2013-04-01 01:14:00,54.5,51.6,30.05,SW,225,0.0,1.0,90,0.00,,OVC070,0.00,VWS V14.01,2013-04-01 08:14:00,
2013-04-01 01:19:00,54.6,51.7,30.05,SW,224,0.0,1.0,90,0.00,,OVC070,0.00,VWS V14.01,2013-04-01 08:19:00,
2013-04-01 01:24:00,54.5,51.9,30.05,SSE,151,0.0,1.0,91,0.00,,OVC070,0.00,VWS V14.01,2013-04-01 08:24:00,
2013-04-01 01:29:00,54.6,52.0,30.05,SSE,148,0.0,1.0,91,0.00,,OVC070,0.00,VWS V14.01,2013-04-01 08:29:00,
2013-04-01 01:34:00,54.6,52.0,30.05,SSE,148,0.0,0.0,91,0.00,,OVC070,0.00,VWS V14.01,2013-04-01 08:34:00,
2013-04-01 01:39:00,54.6,52.0,30.05,SSE,148,0.0,0.0,91,0.00,,OVC070,0.00,VWS V14.01,2013-04-01 08:39:00,
2013-04-01 01:44:00,54.5,51.9,30.05,SSE,148,0.0,0.0,91,0.00,,OVC070,0.00,VWS V14.01,2013-04-01 08:44:00,
2013-04-01 01:49:00,54.5,51.9,30.06,SSE,148,0.0,0.0,91,0.00,,OVC070,0.00,VWS V14.01,2013-04-01 08:49:00,
2013-04-01 01:54:00,54.4,51.8,30.06,SSE,148,0.0,0.0,91,0.00,,OVC070,0.00,VWS V14.01,2013-04-01 08:54:00,
2013-04-01 01:59:00,54.4,51.8,30.06,SSE,148,0.0,0.0,91,0.00,,OVC070,0.00,VWS V14.01,2013-04-01 08:59:00,
2013-04-01 02:04:00,54.3,52.0,30.06,SSE,148,0.0,0.0,92,0.00,,OVC055,0.00,VWS V14.01,2013-04-01 09:04:00,
2013-04-01 02:09:00,54.3,52.0,30.06,SSE,148,0.0,0.0,92,0.00,,OVC055,0.00,VWS V14.01,2013-04-01 09:09:00,
2013-04-01 02:14:00,54.3,52.0,30.06,SSE,148,0.0,0.0,92,0.00,,OVC055,0.00,VWS V14.01,2013-04-01 09:14:00,
2013-04-01 02:19:00,54.4,52.1,30.06,SSE,153,0.0,1.0,92,0.01,,OVC055,0.01,VWS V14.01,2013-04-01 09:19:00,
2013-04-01 02:24:00,54.5,52.2,30.06,SSW,210,0.0,2.0,92,0.02,,OVC055,0.02,VWS V14.01,2013-04-01 09:24:00,
2013-04-01 02:29:00,54.4,52.4,30.06,SSE,158,0.0,2.0,93,0.03,,OVC055,0.03,VWS V14.01,2013-04-01 09:29:00,
2013-04-01 02:34:00,54.3,52.3,30.06,South,187,1.0,2.0,93,0.03,,OVC055,0.03,VWS V14.01,2013-04-01 09:34:00,
2013-04-01 02:39:00,54.2,52.5,30.06,South,176,0.0,2.0,94,0.04,,OVC055,0.04,VWS V14.01,2013-04-01 09:39:00,
2013-04-01 02:44:00,54.1,52.4,30.06,SSW,203,0.0,2.0,94,0.04,,OVC055,0.04,VWS V14.01,2013-04-01 09:44:00,
2013-04-01 02:49:00,54.2,52.8,30.06,South,187,0.0,2.0,95,0.04,,OVC055,0.04,VWS V14.01,2013-04-01 09:49:00,
2013-04-01 02:54:00,54.2,52.8,30.06,South,173,0.0,2.0,95,0.04,,OVC055,0.04,VWS V14.01,2013-04-01 09:54:00,
2013-04-01 02:59:00,54.2,52.8,30.06,SSE,150,0.0,2.0,95,0.04,,OVC055,0.04,VWS V14.01,2013-04-01 09:59:00,
2013-04-01 03:04:00,54.2,52.8,30.06,SSW,194,0.0,1.0,95,0.04,,-RA,0.04,VWS V14.01,2013-04-01 10:04:00,
2013-04-01 03:09:00,54.1,52.7,30.06,SSW,197,0.0,1.0,95,0.04,,-RA,0.04,VWS V14.01,2013-04-01 10:09:00,
2013-04-01 03:14:00,54.2,52.8,30.06,SSW,197,0.0,1.0,95,0.04,,-RA,0.04,VWS V14.01,2013-04-01 10:14:00,
2013-04-01 03:19:00,54.2,53.1,30.06,SSW,198,0.0,1.0,96,0.04,,-RA,0.04,VWS V14.01,2013-04-01 10:19:00,
2013-04-01 03:24:00,54.2,52.8,30.06,WSW,257,0.0,1.0,95,0.04,,-RA,0.04,VWS V14.01,2013-04-01 10:24:00,
2013-04-01 03:29:00,54.2,52.8,30.06,West,271,0.0,1.0,95,0.04,,-RA,0.04,VWS V14.01,2013-04-01 10:29:00,
2013-04-01 03:34:00,54.2,52.8,30.06,SSW,194,0.0,0.0,95,0.02,,-RA,0.05,VWS V14.01,2013-04-01 10:34:00,
2013-04-01 03:39:00,54.1,52.7,30.06,SSW,194,0.0,0.0,95,0.02,,-RA,0.05,VWS V14.01,2013-04-01 10:39:00,
2013-04-01 03:44:00,54.0,52.6,30.06,SSW,212,0.0,0.0,95,0.02,,-RA,0.05,VWS V14.01,2013-04-01 10:44:00,
2013-04-01 03:49:00,53.9,52.5,30.06,SSW,212,0.0,0.0,95,0.02,,-RA,0.05,VWS V14.01,2013-04-01 10:49:00,
2013-04-01 03:54:00,53.7,52.3,30.06,SSW,212,0.0,0.0,95,0.02,,-RA,0.05,VWS V14.01,2013-04-01 10:54:00,
2013-04-01 03:59:00,53.7,52.3,30.06,SSW,200,0.0,0.0,95,0.02,,-RA,0.05,VWS V14.01,2013-04-01 10:59:00,
2013-04-01 04:05:00,53.6,52.2,30.06,SSW,210,0.0,1.0,95,0.01,,OVC085,0.05,VWS V14.01,2013-04-01 11:05:00,
2013-04-01 04:10:00,53.6,52.2,30.06,SSW,211,0.0,1.0,95,0.01,,OVC085,0.05,VWS V14.01,2013-04-01 11:10:00,
2013-04-01 04:15:00,53.6,52.2,30.06,SSW,211,0.0,1.0,95,0.01,,OVC085,0.05,VWS V14.01,2013-04-01 11:15:00,
2013-04-01 04:20:00,53.6,52.2,30.06,SSW,212,0.0,1.0,95,0.01,,OVC085,0.05,VWS V14.01,2013-04-01 11:20:00,
2013-04-01 04:25:00,53.6,52.2,30.06,SSW,212,0.0,1.0,95,0.01,,OVC085,0.05,VWS V14.01,2013-04-01 11:25:00,
2013-04-01 04:30:00,53.6,52.2,30.06,SSW,211,0.0,1.0,95,0.01,,OVC085,0.05,VWS V14.01,2013-04-01 11:30:00,
2013-04-01 04:35:00,53.7,52.3,30.07,SE,138,0.0,1.0,95,0.01,,OVC085,0.05,VWS V14.01,2013-04-01 11:35:00,
2013-04-01 04:40:00,53.8,52.4,30.07,SSW,199,0.0,1.0,95,0.01,,OVC085,0.05,VWS V14.01,2013-04-01 11:40:00,
2013-04-01 04:45:00,53.8,52.4,30.07,SSW,205,0.0,3.0,95,0.01,,OVC085,0.05,VWS V14.01,2013-04-01 11:45:00,
2013-04-01 04:50:00,53.8,52.4,30.07,South,186,0.0,3.0,95,0.01,,OVC085,0.05,VWS V14.01,2013-04-01 11:50:00,
2013-04-01 04:55:00,53.9,52.5,30.07,SW,221,1.0,3.0,95,0.01,,OVC085,0.05,VWS V14.01,2013-04-01 11:55:00,
2013-04-01 05:00:00,54.0,52.3,30.07,South,187,1.0,3.0,94,0.01,,OVC085,0.05,VWS V14.01,2013-04-01 12:00:00,
2013-04-01 05:05:00,54.0,52.3,30.07,SSW,200,2.0,4.0,94,0.00,,OVC026,0.05,VWS V14.01,2013-04-01 12:05:00,
2013-04-01 05:10:00,54.0,52.3,30.07,SE,138,0.0,4.0,94,0.01,,OVC026,0.06,VWS V14.01,2013-04-01 12:10:00,
2013-04-01 05:15:00,54.0,52.3,30.07,South,190,0.0,4.0,94,0.01,,OVC026,0.06,VWS V14.01,2013-04-01 12:15:00,
2013-04-01 05:20:00,53.9,52.2,30.07,SSW,194,0.0,4.0,94,0.01,,OVC026,0.06,VWS V14.01,2013-04-01 12:20:00,
2013-04-01 05:25:00,53.9,52.2,30.07,SSW,194,0.0,4.0,94,0.01,,OVC026,0.06,VWS V14.01,2013-04-01 12:25:00,
2013-04-01 05:30:00,53.9,52.2,30.07,West,280,0.0,4.0,94,0.01,,OVC026,0.06,VWS V14.01,2013-04-01 12:30:00,
2013-04-01 05:35:00,53.9,52.2,30.07,West,259,0.0,1.0,94,0.01,,OVC026,0.06,VWS V14.01,2013-04-01 12:35:00,
2013-04-01 05:40:00,53.9,52.2,30.07,WSW,257,0.0,1.0,94,0.01,,OVC026,0.06,VWS V14.01,2013-04-01 12:40:00,
2013-04-01 05:45:00,53.8,52.1,30.08,WSW,257,0.0,1.0,94,0.01,,OVC026,0.06,VWS V14.01,2013-04-01 12:45:00,
2013-04-01 05:50:00,53.8,52.1,30.08,WSW,257,0.0,1.0,94,0.01,,OVC026,0.06,VWS V14.01,2013-04-01 12:50:00,
2013-04-01 05:55:00,53.7,52.3,30.08,WSW,257,0.0,1.0,95,0.01,,OVC026,0.06,VWS V14.01,2013-04-01 12:55:00,
2013-04-01 06:00:00,53.7,52.3,30.08,WSW,258,0.0,1.0,95,0.01,,OVC026,0.06,VWS V14.01,2013-04-01 13:00:00,
2013-04-01 06:05:00,53.8,52.4,30.08,WSW,257,0.0,0.0,95,0.01,,OVC070,0.06,VWS V14.01,2013-04-01 13:05:00,
2013-04-01 06:10:00,53.8,52.4,30.08,SSE,155,0.0,1.0,95,0.01,,OVC070,0.06,VWS V14.01,2013-04-01 13:10:00,
2013-04-01 06:15:00,53.7,52.3,30.08,SSE,166,0.0,1.0,95,0.01,,OVC070,0.06,VWS V14.01,2013-04-01 13:15:00,
2013-04-01 06:20:00,53.6,52.5,30.08,SSE,163,0.0,1.0,96,0.02,,OVC070,0.07,VWS V14.01,2013-04-01 13:20:00,
2013-04-01 06:25:00,53.7,52.6,30.08,SW,217,1.0,2.0,96,0.02,,OVC070,0.07,VWS V14.01,2013-04-01 13:25:00,
2013-04-01 06:30:00,53.7,52.6,30.08,SSE,158,0.0,2.0,96,0.02,,OVC070,0.07,VWS V14.01,2013-04-01 13:30:00,
2013-04-01 06:35:00,53.7,52.6,30.08,SSE,160,0.0,1.0,96,0.02,,OVC070,0.08,VWS V14.01,2013-04-01 13:35:00,
2013-04-01 06:40:00,53.7,52.6,30.09,SW,232,0.0,1.0,96,0.02,,OVC070,0.08,VWS V14.01,2013-04-01 13:40:00,
2013-04-01 06:45:00,53.7,52.6,30.09,WSW,255,2.0,3.0,96,0.02,,OVC070,0.08,VWS V14.01,2013-04-01 13:45:00,
2013-04-01 06:50:00,53.7,52.6,30.09,WSW,255,0.0,3.0,96,0.02,,OVC070,0.08,VWS V14.01,2013-04-01 13:50:00,
2013-04-01 06:55:00,53.8,52.7,30.09,West,260,1.0,3.0,96,0.03,,OVC070,0.09,VWS V14.01,2013-04-01 13:55:00,
2013-04-01 07:00:00,53.8,52.7,30.09,West,278,0.0,3.0,96,0.03,,OVC070,0.09,VWS V14.01,2013-04-01 14:00:00,
2013-04-01 07:06:00,53.9,52.5,30.09,West,266,2.0,2.0,95,0.04,,OVC050,0.10,VWS V14.01,2013-04-01 14:06:00,
2013-04-01 07:11:00,53.9,52.5,30.09,WSW,255,0.0,3.0,95,0.04,,OVC050,0.10,VWS V14.01,2013-04-01 14:11:00,
2013-04-01 07:16:00,54.0,52.6,30.09,SW,225,0.0,3.0,95,0.04,,OVC050,0.10,VWS V14.01,2013-04-01 14:16:00,
2013-04-01 07:21:00,54.0,52.6,30.09,WSW,250,0.0,3.0,95,0.04,,OVC050,0.10,VWS V14.01,2013-04-01 14:21:00,
2013-04-01 07:26:00,54.1,52.7,30.09,West,262,0.0,3.0,95,0.04,,OVC050,0.10,VWS V14.01,2013-04-01 14:26:00,
2013-04-01 07:31:00,54.1,52.4,30.09,West,262,0.0,0.0,94,0.03,,OVC050,0.10,VWS V14.01,2013-04-01 14:31:00,
2013-04-01 07:36:00,54.1,52.4,30.09,West,262,0.0,0.0,94,0.03,,OVC050,0.10,VWS V14.01,2013-04-01 14:36:00,
2013-04-01 07:42:00,54.2,52.8,30.10,West,262,0.0,0.0,95,0.03,,OVC050,0.10,VWS V14.01,2013-04-01 14:42:00,
2013-04-01 07:47:00,54.3,52.9,30.10,West,262,0.0,0.0,95,0.03,,OVC050,0.10,VWS V14.01,2013-04-01 14:47:00,
2013-04-01 07:52:00,54.3,52.9,30.10,West,261,0.0,0.0,95,0.03,,OVC050,0.10,VWS V14.01,2013-04-01 14:52:00,
2013-04-01 07:57:00,54.5,53.1,30.10,West,262,0.0,0.0,95,0.03,,OVC050,0.10,VWS V14.01,2013-04-01 14:57:00,
2013-04-01 08:02:00,54.8,53.4,30.10,West,262,0.0,0.0,95,0.01,,OVC046,0.10,VWS V14.01,2013-04-01 15:02:00,
2013-04-01 08:07:00,55.7,54.3,30.10,West,262,0.0,0.0,95,0.01,,OVC046,0.10,VWS V14.01,2013-04-01 15:07:00,
2013-04-01 08:12:00,57.0,55.6,30.10,West,262,0.0,0.0,95,0.01,,OVC046,0.10,VWS V14.01,2013-04-01 15:12:00,
2013-04-01 08:17:00,59.0,55.1,30.11,West,262,0.0,0.0,87,0.01,,OVC046,0.10,VWS V14.01,2013-04-01 15:17:00,
2013-04-01 08:22:00,60.4,54.9,30.11,South,191,0.0,1.0,82,0.01,,OVC046,0.10,VWS V14.01,2013-04-01 15:22:00,
2013-04-01 08:27:00,60.2,54.7,30.11,South,181,0.0,2.0,82,0.01,,OVC046,0.10,VWS V14.01,2013-04-01 15:27:00,
2013-04-01 08:32:00,59.5,54.7,30.11,SSE,159,0.0,1.0,84,0.00,,OVC046,0.10,VWS V14.01,2013-04-01 15:32:00,
2013-04-01 08:37:00,59.1,54.3,30.11,SSW,202,0.0,2.0,84,0.00,,OVC046,0.10,VWS V14.01,2013-04-01 15:37:00,
2013-04-01 08:42:00,59.0,54.5,30.11,SSE,160,1.0,2.0,85,0.00,,OVC046,0.10,VWS V14.01,2013-04-01 15:42:00,
2013-04-01 08:47:00,58.9,54.4,30.11,SSW,207,0.0,2.0,85,0.00,,OVC046,0.10,VWS V14.01,2013-04-01 15:47:00,
2013-04-01 08:52:00,59.0,54.5,30.11,SSW,207,1.0,2.0,85,0.00,,OVC046,0.10,VWS V14.01,2013-04-01 15:52:00,
2013-04-01 08:57:00,58.9,53.8,30.11,WSW,252,0.0,3.0,83,0.00,,OVC046,0.10,VWS V14.01,2013-04-01 15:57:00,
2013-04-01 09:02:00,59.0,54.5,30.11,SW,215,0.0,2.0,85,0.00,,OVC046,0.10,VWS V14.01,2013-04-01 16:02:00,
2013-04-01 09:07:00,59.2,55.0,30.11,South,174,2.0,4.0,86,0.00,,OVC046,0.10,VWS V14.01,2013-04-01 16:07:00,
2013-04-01 09:12:00,59.8,55.6,30.12,SE,125,1.0,4.0,86,0.00,,OVC046,0.10,VWS V14.01,2013-04-01 16:12:00,
2013-04-01 09:17:00,59.9,54.7,30.12,South,183,4.0,4.0,83,0.00,,OVC046,0.10,VWS V14.01,2013-04-01 16:17:00,
2013-04-01 09:22:00,60.1,55.3,30.12,South,173,2.0,5.0,84,0.00,,OVC046,0.10,VWS V14.01,2013-04-01 16:22:00,
2013-04-01 09:27:00,60.3,55.1,30.12,SSE,155,0.0,6.0,83,0.00,,OVC046,0.10,VWS V14.01,2013-04-01 16:27:00,
2013-04-01 09:33:00,60.4,55.2,30.12,ESE,115,1.0,5.0,83,0.00,,OVC046,0.10,VWS V14.01,2013-04-01 16:33:00,
2013-04-01 09:38:00,60.2,54.4,30.12,SSW,195,2.0,5.0,81,0.00,,OVC046,0.10,VWS V14.01,2013-04-01 16:38:00,
2013-04-01 09:43:00,59.7,54.5,30.13,South,191,3.0,5.0,83,0.00,,OVC046,0.10,VWS V14.01,2013-04-01 16:43:00,
2013-04-01 09:48:00,59.5,54.3,30.13,SE,124,5.0,6.0,83,0.00,,OVC046,0.10,VWS V14.01,2013-04-01 16:48:00,
2013-04-01 09:53:00,59.4,53.9,30.13,SE,133,1.0,6.0,82,0.00,,OVC046,0.10,VWS V14.01,2013-04-01 16:53:00,
2013-04-01 09:58:00,59.7,54.5,30.13,SSE,167,1.0,6.0,83,0.00,,OVC046,0.10,VWS V14.01,2013-04-01 16:58:00,
2013-04-01 10:03:00,60.1,54.3,30.13,SE,139,1.0,5.0,81,0.00,,OVC060,0.10,VWS V14.01,2013-04-01 17:03:00,
2013-04-01 10:08:00,60.5,54.3,30.13,SE,131,1.0,5.0,80,0.00,,OVC060,0.10,VWS V14.01,2013-04-01 17:08:00,
2013-04-01 10:13:00,61.1,54.9,30.13,SSW,194,3.0,5.0,80,0.00,,OVC060,0.10,VWS V14.01,2013-04-01 17:13:00,
2013-04-01 10:18:00,61.6,54.7,30.13,ESE,122,1.0,5.0,78,0.00,,OVC060,0.10,VWS V14.01,2013-04-01 17:18:00,
2013-04-01 10:23:00,61.7,54.8,30.13,SSE,150,2.0,5.0,78,0.00,,OVC060,0.10,VWS V14.01,2013-04-01 17:23:00,
2013-04-01 10:28:00,62.1,55.2,30.13,South,181,0.0,5.0,78,0.00,,OVC060,0.10,VWS V14.01,2013-04-01 17:28:00,
2013-04-01 10:33:00,62.4,54.8,30.13,SE,142,4.0,5.0,76,0.00,,OVC060,0.10,VWS V14.01,2013-04-01 17:33:00,
2013-04-01 10:38:00,62.1,54.8,30.13,SSE,163,1.0,5.0,77,0.00,,OVC060,0.10,VWS V14.01,2013-04-01 17:38:00,
2013-04-01 10:43:00,62.2,54.5,30.14,East,87,0.0,5.0,76,0.00,,OVC060,0.10,VWS V14.01,2013-04-01 17:43:00,
2013-04-01 10:48:00,62.4,54.8,30.14,South,191,3.0,6.0,76,0.00,,OVC060,0.10,VWS V14.01,2013-04-01 17:48:00,
2013-04-01 10:53:00,62.8,54.8,30.14,SE,142,2.0,7.0,75,0.00,,OVC060,0.10,VWS V14.01,2013-04-01 17:53:00,
2013-04-01 10:58:00,63.5,55.4,30.14,SE,145,2.0,7.0,75,0.00,,OVC060,0.10,VWS V14.01,2013-04-01 17:58:00,
2013-04-01 11:04:00,64.1,56.0,30.14,East,84,0.0,5.0,75,0.00,,OVC060,0.10,VWS V14.01,2013-04-01 18:04:00,
2013-04-01 11:09:00,64.7,55.1,30.14,SSW,203,3.0,5.0,71,0.00,,OVC060,0.10,VWS V14.01,2013-04-01 18:09:00,
2013-04-01 11:14:00,65.0,55.0,30.14,SE,134,1.0,5.0,70,0.00,,OVC060,0.10,VWS V14.01,2013-04-01 18:14:00,
2013-04-01 11:19:00,65.0,54.6,30.14,ESE,122,2.0,5.0,69,0.00,,OVC060,0.10,VWS V14.01,2013-04-01 18:19:00,
2013-04-01 11:24:00,64.2,54.6,30.14,SE,136,2.0,5.0,71,0.00,,OVC060,0.10,VWS V14.01,2013-04-01 18:24:00,
2013-04-01 11:29:00,64.3,54.7,30.14,East,86,1.0,5.0,71,0.00,,OVC060,0.10,VWS V14.01,2013-04-01 18:29:00,
2013-04-01 11:34:00,64.4,54.0,30.14,ESE,103,2.0,4.0,69,0.00,,OVC060,0.10,VWS V14.01,2013-04-01 18:34:00,
2013-04-01 11:39:00,65.0,55.4,30.14,ESE,107,4.0,4.0,71,0.00,,OVC060,0.10,VWS V14.01,2013-04-01 18:39:00,
2013-04-01 11:44:00,65.1,53.1,30.14,South,177,3.0,4.0,65,0.00,,OVC060,0.10,VWS V14.01,2013-04-01 18:44:00,
2013-04-01 11:49:00,64.9,53.3,30.14,South,188,3.0,4.0,66,0.00,,OVC060,0.10,VWS V14.01,2013-04-01 18:49:00,
2013-04-01 11:54:00,64.2,53.0,30.14,ESE,107,1.0,4.0,67,0.00,,OVC060,0.10,VWS V14.01,2013-04-01 18:54:00,
2013-04-01 11:59:00,64.0,53.2,30.14,SE,124,3.0,4.0,68,0.00,,OVC060,0.10,VWS V14.01,2013-04-01 18:59:00,
2013-04-01 12:04:00,63.6,53.7,30.14,ESE,113,0.0,1.0,70,0.00,,OVC075,0.10,VWS V14.01,2013-04-01 19:04:00,
2013-04-01 12:09:00,63.8,53.5,30.13,SSE,153,0.0,1.0,69,0.00,,OVC075,0.10,VWS V14.01,2013-04-01 19:09:00,
2013-04-01 12:14:00,63.9,52.3,30.13,SSW,194,0.0,3.0,66,0.00,,OVC075,0.10,VWS V14.01,2013-04-01 19:14:00,
2013-04-01 12:19:00,64.3,53.5,30.13,East,89,2.0,3.0,68,0.00,,OVC075,0.10,VWS V14.01,2013-04-01 19:19:00,
2013-04-01 12:24:00,64.3,53.5,30.13,ESE,123,2.0,3.0,68,0.00,,OVC075,0.10,VWS V14.01,2013-04-01 19:24:00,
2013-04-01 12:29:00,64.5,53.3,30.13,SW,225,2.0,3.0,67,0.00,,OVC075,0.10,VWS V14.01,2013-04-01 19:29:00,
2013-04-01 12:34:00,64.3,53.1,30.13,West,264,0.0,3.0,67,0.00,,OVC075,0.10,VWS V14.01,2013-04-01 19:34:00,
2013-04-01 12:39:00,64.2,52.6,30.13,SW,218,3.0,5.0,66,0.00,,OVC075,0.10,VWS V14.01,2013-04-01 19:39:00,
2013-04-01 12:44:00,64.0,53.2,30.13,SW,215,1.0,5.0,68,0.00,,OVC075,0.10,VWS V14.01,2013-04-01 19:44:00,
2013-04-01 12:49:00,63.9,53.1,30.13,East,89,1.0,5.0,68,0.00,,OVC075,0.10,VWS V14.01,2013-04-01 19:49:00,
2013-04-01 12:54:00,63.5,53.5,30.13,SSE,167,4.0,7.0,70,0.00,,OVC075,0.10,VWS V14.01,2013-04-01 19:54:00,
2013-04-01 12:59:00,62.9,53.4,30.13,SSW,200,4.0,9.0,71,0.00,,OVC075,0.10,VWS V14.01,2013-04-01 19:59:00,
2013-04-01 13:04:00,62.4,52.9,30.13,SSW,195,2.0,7.0,71,0.00,,OVC033,0.10,VWS V14.01,2013-04-01 20:04:00,
2013-04-01 13:09:00,62.4,53.3,30.13,South,187,2.0,7.0,72,0.00,,OVC033,0.10,VWS V14.01,2013-04-01 20:09:00,
2013-04-01 13:14:00,62.7,53.2,30.14,SSW,208,2.0,7.0,71,0.00,,OVC033,0.10,VWS V14.01,2013-04-01 20:14:00,
2013-04-01 13:19:00,62.9,53.8,30.14,SSE,155,1.0,7.0,72,0.00,,OVC033,0.10,VWS V14.01,2013-04-01 20:19:00,
2013-04-01 13:24:00,63.5,53.9,30.14,South,174,2.0,7.0,71,0.00,,OVC033,0.10,VWS V14.01,2013-04-01 20:24:00,
2013-04-01 13:29:00,63.5,53.9,30.14,SSW,195,2.0,7.0,71,0.00,,OVC033,0.10,VWS V14.01,2013-04-01 20:29:00,
2013-04-01 13:34:00,63.5,53.9,30.13,SSE,153,6.0,7.0,71,0.00,,OVC033,0.10,VWS V14.01,2013-04-01 20:34:00,
2013-04-01 13:39:00,63.4,53.5,30.13,SW,217,0.0,7.0,70,0.00,,OVC033,0.10,VWS V14.01,2013-04-01 20:39:00,
2013-04-01 13:44:00,63.4,53.8,30.13,SSW,209,2.0,7.0,71,0.00,,OVC033,0.10,VWS V14.01,2013-04-01 20:44:00,
2013-04-01 13:49:00,63.7,54.5,30.13,SSW,203,2.0,7.0,72,0.00,,OVC033,0.10,VWS V14.01,2013-04-01 20:49:00,
2013-04-01 13:54:00,63.8,53.8,30.13,South,172,3.0,7.0,70,0.00,,OVC033,0.10,VWS V14.01,2013-04-01 20:54:00,
2013-04-01 14:00:00,64.2,53.0,30.13,SSE,158,5.0,7.0,67,0.00,,OVC033,0.10,VWS V14.01,2013-04-01 21:00:00,
2013-04-01 14:04:00,64.6,52.6,30.12,South,174,0.0,5.0,65,0.00,,OVC090,0.10,VWS V14.01,2013-04-01 21:04:00,
2013-04-01 14:10:00,65.7,53.2,30.12,SSE,148,2.0,6.0,64,0.00,,OVC090,0.10,VWS V14.01,2013-04-01 21:10:00,
2013-04-01 14:15:00,66.8,52.5,30.12,SSE,153,1.0,6.0,60,0.00,,OVC090,0.10,VWS V14.01,2013-04-01 21:15:00,
2013-04-01 14:20:00,66.9,52.6,30.12,SE,131,1.0,6.0,60,0.00,,OVC090,0.10,VWS V14.01,2013-04-01 21:20:00,
2013-04-01 14:25:00,67.4,52.6,30.12,ESE,113,2.0,7.0,59,0.00,,OVC090,0.10,VWS V14.01,2013-04-01 21:25:00,
2013-04-01 14:30:00,67.6,52.8,30.12,WNW,288,1.0,7.0,59,0.00,,OVC090,0.10,VWS V14.01,2013-04-01 21:30:00,
2013-04-01 14:35:00,68.2,52.9,30.12,ENE,77,3.0,4.0,58,0.00,,OVC090,0.10,VWS V14.01,2013-04-01 21:35:00,
2013-04-01 14:40:00,69.0,53.2,30.12,ESE,105,3.0,6.0,57,0.00,,OVC090,0.10,VWS V14.01,2013-04-01 21:40:00,
2013-04-01 14:45:00,69.0,51.7,30.12,South,187,1.0,7.0,54,0.00,,OVC090,0.10,VWS V14.01,2013-04-01 21:45:00,
2013-04-01 14:50:00,69.1,51.3,30.11,WNW,302,1.0,7.0,53,0.00,,OVC090,0.10,VWS V14.01,2013-04-01 21:50:00,
2013-04-01 14:55:00,68.9,51.1,30.11,West,263,1.0,7.0,53,0.00,,OVC090,0.10,VWS V14.01,2013-04-01 21:55:00,
2013-04-01 15:00:00,68.6,51.3,30.11,West,264,5.0,7.0,54,0.00,,OVC090,0.10,VWS V14.01,2013-04-01 22:00:00,
2013-04-01 15:05:00,68.2,51.4,30.11,SE,134,0.0,6.0,55,0.00,,BKN095,0.10,VWS V14.01,2013-04-01 22:05:00,
2013-04-01 15:10:00,67.7,51.5,30.10,South,172,4.0,6.0,56,0.00,,BKN095,0.10,VWS V14.01,2013-04-01 22:10:00,
2013-04-01 15:15:00,68.4,53.1,30.10,South,177,1.0,6.0,58,0.00,,BKN095,0.10,VWS V14.01,2013-04-01 22:15:00,
2013-04-01 15:20:00,69.0,51.2,30.10,West,269,1.0,6.0,53,0.00,,BKN095,0.10,VWS V14.01,2013-04-01 22:20:00,
2013-04-01 15:25:00,69.3,52.0,30.10,SSE,153,0.0,6.0,54,0.00,,BKN095,0.10,VWS V14.01,2013-04-01 22:25:00,
2013-04-01 15:30:00,70.1,53.2,30.10,SW,215,0.0,6.0,55,0.00,,BKN095,0.10,VWS V14.01,2013-04-01 22:30:00,
2013-04-01 15:35:00,70.3,52.9,30.10,South,176,3.0,4.0,54,0.00,,BKN095,0.10,VWS V14.01,2013-04-01 22:35:00,
2013-04-01 15:40:00,70.4,53.0,30.10,SSE,166,2.0,6.0,54,0.00,,BKN095,0.10,VWS V14.01,2013-04-01 22:40:00,
2013-04-01 15:45:00,69.8,52.4,30.10,WSW,255,1.0,6.0,54,0.00,,BKN095,0.10,VWS V14.01,2013-04-01 22:45:00,
2013-04-01 15:50:00,70.2,53.3,30.09,SSW,197,0.0,6.0,55,0.00,,BKN095,0.10,VWS V14.01,2013-04-01 22:50:00,
2013-04-01 15:55:00,69.7,52.3,30.09,West,271,0.0,6.0,54,0.00,,BKN095,0.10,VWS V14.01,2013-04-01 22:55:00,
2013-04-01 16:00:00,70.2,52.8,30.09,SSW,198,3.0,6.0,54,0.00,,BKN095,0.10,VWS V14.01,2013-04-01 23:00:00,
2013-04-01 16:05:00,70.3,52.9,30.09,WNW,298,1.0,6.0,54,0.00,,SCT038,0.10,VWS V14.01,2013-04-01 23:05:00,
2013-04-01 16:10:00,69.6,51.7,30.09,NW,311,1.0,8.0,53,0.00,,SCT038,0.10,VWS V14.01,2013-04-01 23:10:00,
2013-04-01 16:15:00,69.6,52.7,30.09,WSW,255,2.0,8.0,55,0.00,,SCT038,0.10,VWS V14.01,2013-04-01 23:15:00,
2013-04-01 16:20:00,69.8,51.4,30.09,SSE,166,1.0,8.0,52,0.00,,SCT038,0.10,VWS V14.01,2013-04-01 23:20:00,
2013-04-01 16:25:00,69.9,51.5,30.09,SSE,155,5.0,8.0,52,0.00,,SCT038,0.10,VWS V14.01,2013-04-01 23:25:00,
2013-04-01 16:30:00,69.9,51.5,30.09,SSE,160,1.0,8.0,52,0.00,,SCT038,0.10,VWS V14.01,2013-04-01 23:30:00,
2013-04-01 16:35:00,70.2,51.8,30.09,SSW,204,3.0,8.0,52,0.00,,SCT038,0.10,VWS V14.01,2013-04-01 23:35:00,
2013-04-01 16:40:00,69.7,51.8,30.08,West,279,1.0,8.0,53,0.00,,SCT038,0.10,VWS V14.01,2013-04-01 23:40:00,
2013-04-01 16:45:00,70.2,52.3,30.08,SSW,204,3.0,8.0,53,0.00,,SCT038,0.10,VWS V14.01,2013-04-01 23:45:00,
2013-04-01 16:50:00,70.4,52.0,30.08,SSW,195,3.0,8.0,52,0.00,,SCT038,0.10,VWS V14.01,2013-04-01 23:50:00,
2013-04-01 16:55:00,70.7,52.2,30.08,NW,309,2.0,8.0,52,0.00,,SCT038,0.10,VWS V14.01,2013-04-01 23:55:00,
2013-04-01 17:00:00,70.3,52.4,30.08,NNE,27,2.0,8.0,53,0.00,,SCT038,0.10,VWS V14.01,2013-04-02 00:00:00,
2013-04-01 17:05:00,69.6,52.2,30.08,NNW,333,3.0,6.0,54,0.00,,CLR,0.10,VWS V14.01,2013-04-02 00:05:00,
2013-04-01 17:10:00,69.0,53.2,30.08,North,8,1.0,6.0,57,0.00,,CLR,0.10,VWS V14.01,2013-04-02 00:10:00,
2013-04-01 17:15:00,68.3,53.4,30.08,NW,316,0.0,6.0,59,0.00,,CLR,0.10,VWS V14.01,2013-04-02 00:15:00,
2013-04-01 17:20:00,67.4,52.6,30.08,NNE,19,2.0,6.0,59,0.00,,CLR,0.10,VWS V14.01,2013-04-02 00:20:00,
2013-04-01 17:25:00,67.0,52.7,30.08,WNW,291,1.0,6.0,60,0.00,,CLR,0.10,VWS V14.01,2013-04-02 00:25:00,
2013-04-01 17:30:00,67.2,52.9,30.08,WNW,300,3.0,6.0,60,0.00,,CLR,0.10,VWS V14.01,2013-04-02 00:30:00,
2013-04-01 17:35:00,67.2,51.9,30.08,West,259,1.0,4.0,58,0.00,,CLR,0.10,VWS V14.01,2013-04-02 00:35:00,
2013-04-01 17:40:00,67.8,52.5,30.08,NW,321,2.0,4.0,58,0.00,,CLR,0.10,VWS V14.01,2013-04-02 00:40:00,
2013-04-01 17:45:00,68.3,51.5,30.08,NNE,26,1.0,4.0,55,0.00,,CLR,0.10,VWS V14.01,2013-04-02 00:45:00,
2013-04-01 17:50:00,68.3,52.0,30.08,NNE,13,1.0,4.0,56,0.00,,CLR,0.10,VWS V14.01,2013-04-02 00:50:00,
2013-04-01 17:55:00,69.1,51.8,30.08,WNW,295,1.0,4.0,54,0.00,,CLR,0.10,VWS V14.01,2013-04-02 00:55:00,
2013-04-01 18:00:00,69.5,49.5,30.09,SW,228,0.0,4.0,49,0.00,,CLR,0.10,VWS V14.01,2013-04-02 01:00:00,
2013-04-01 18:05:00,69.6,49.6,30.08,SE,137,0.0,2.0,49,0.00,,BKN043,0.10,VWS V14.01,2013-04-02 01:05:00,
2013-04-01 18:10:00,68.9,49.5,30.09,West,276,3.0,6.0,50,0.00,,BKN043,0.10,VWS V14.01,2013-04-02 01:10:00,
2013-04-01 18:15:00,68.7,49.9,30.09,SSE,167,1.0,6.0,51,0.00,,BKN043,0.10,VWS V14.01,2013-04-02 01:15:00,
2013-04-01 18:20:00,69.0,50.1,30.09,WSW,243,1.0,6.0,51,0.00,,BKN043,0.10,VWS V14.01,2013-04-02 01:20:00,
2013-04-01 18:25:00,68.5,49.2,30.09,WSW,253,2.0,6.0,50,0.00,,BKN043,0.10,VWS V14.01,2013-04-02 01:25:00,
2013-04-01 18:30:00,68.3,50.0,30.09,West,267,4.0,6.0,52,0.00,,BKN043,0.10,VWS V14.01,2013-04-02 01:30:00,
2013-04-01 18:35:00,68.4,50.1,30.09,WNW,283,2.0,4.0,52,0.00,,BKN043,0.10,VWS V14.01,2013-04-02 01:35:00,
2013-04-01 18:40:00,68.2,49.9,30.09,SSE,157,2.0,4.0,52,0.00,,BKN043,0.10,VWS V14.01,2013-04-02 01:40:00,
2013-04-01 18:45:00,68.3,49.5,30.09,WNW,285,1.0,4.0,51,0.00,,BKN043,0.10,VWS V14.01,2013-04-02 01:45:00,
2013-04-01 18:51:00,68.2,49.4,30.09,SSE,156,1.0,4.0,51,0.00,,BKN043,0.10,VWS V14.01,2013-04-02 01:51:00,
2013-04-01 18:56:00,68.0,49.2,30.09,SSE,167,2.0,4.0,51,0.00,,BKN043,0.10,VWS V14.01,2013-04-02 01:56:00,
2013-04-01 19:01:00,67.8,49.5,30.09,SSE,164,0.0,4.0,52,0.00,,CLR,0.10,VWS V14.01,2013-04-02 02:01:00,
2013-04-01 19:06:00,67.3,49.6,30.09,SSW,198,0.0,2.0,53,0.00,,CLR,0.10,VWS V14.01,2013-04-02 02:06:00,
2013-04-01 19:11:00,66.4,49.3,30.09,South,177,1.0,2.0,54,0.00,,CLR,0.10,VWS V14.01,2013-04-02 02:11:00,
2013-04-01 19:16:00,65.6,49.0,30.09,South,187,0.0,2.0,55,0.00,,CLR,0.10,VWS V14.01,2013-04-02 02:16:00,
2013-04-01 19:21:00,64.9,49.3,30.09,South,169,0.0,2.0,57,0.00,,CLR,0.10,VWS V14.01,2013-04-02 02:21:00,
2013-04-01 19:26:00,64.3,49.2,30.09,South,172,0.0,2.0,58,0.00,,CLR,0.10,VWS V14.01,2013-04-02 02:26:00,
2013-04-01 19:31:00,63.9,49.8,30.09,South,172,0.0,0.0,60,0.00,,CLR,0.10,VWS V14.01,2013-04-02 02:31:00,
2013-04-01 19:36:00,63.3,49.2,30.09,SSW,211,0.0,1.0,60,0.00,,CLR,0.10,VWS V14.01,2013-04-02 02:36:00,
2013-04-01 19:41:00,62.8,49.6,30.09,SSW,211,0.0,1.0,62,0.00,,CLR,0.10,VWS V14.01,2013-04-02 02:41:00,
2013-04-01 19:46:00,62.4,49.2,30.09,SSW,211,0.0,1.0,62,0.00,,CLR,0.10,VWS V14.01,2013-04-02 02:46:00,
2013-04-01 19:51:00,62.1,49.4,30.09,SSW,211,0.0,1.0,63,0.00,,CLR,0.10,VWS V14.01,2013-04-02 02:51:00,
2013-04-01 19:56:00,61.8,49.5,30.10,SSW,211,0.0,1.0,64,0.00,,CLR,0.10,VWS V14.01,2013-04-02 02:56:00,
2013-04-01 20:02:00,61.6,49.3,30.10,SSW,201,0.0,0.0,64,0.00,,CLR,0.10,VWS V14.01,2013-04-02 03:02:00,
2013-04-01 20:07:00,61.3,49.9,30.10,South,169,0.0,1.0,66,0.00,,CLR,0.10,VWS V14.01,2013-04-02 03:07:00,
2013-04-01 20:12:00,60.9,49.9,30.10,SSW,210,3.0,3.0,67,0.00,,CLR,0.10,VWS V14.01,2013-04-02 03:12:00,
2013-04-01 20:17:00,60.9,50.3,30.10,South,181,0.0,3.0,68,0.00,,CLR,0.10,VWS V14.01,2013-04-02 03:17:00,
2013-04-01 20:22:00,60.7,50.5,30.10,SSW,210,0.0,3.0,69,0.00,,CLR,0.10,VWS V14.01,2013-04-02 03:22:00,
2013-04-01 20:27:00,60.4,50.6,30.10,West,274,0.0,3.0,70,0.00,,CLR,0.10,VWS V14.01,2013-04-02 03:27:00,
2013-04-01 20:32:00,60.1,50.7,30.10,West,276,0.0,0.0,71,0.00,,CLR,0.10,VWS V14.01,2013-04-02 03:32:00,
2013-04-01 20:37:00,59.8,50.8,30.11,West,276,0.0,0.0,72,0.00,,CLR,0.10,VWS V14.01,2013-04-02 03:37:00,
2013-04-01 20:42:00,59.3,50.7,30.10,SSW,197,0.0,0.0,73,0.00,,CLR,0.10,VWS V14.01,2013-04-02 03:42:00,
2013-04-01 20:47:00,59.0,51.1,30.10,SSW,197,0.0,0.0,75,0.00,,CLR,0.10,VWS V14.01,2013-04-02 03:47:00,
2013-04-01 20:52:00,58.5,51.3,30.10,SSW,198,0.0,0.0,77,0.00,,CLR,0.10,VWS V14.01,2013-04-02 03:52:00,
2013-04-01 20:57:00,58.3,51.1,30.10,SSW,198,0.0,1.0,77,0.00,,CLR,0.10,VWS V14.01,2013-04-02 03:57:00,
2013-04-01 21:00:00,58.3,51.1,30.11,SSW,197,0.0,1.0,77,0.00,,CLR,0.10,VWS V14.01,2013-04-02 04:00:00,
2013-04-01 21:05:00,58.0,51.2,30.11,SSW,197,0.0,0.0,78,0.00,,CLR,0.10,VWS V14.01,2013-04-02 04:05:00,
2013-04-01 21:10:00,57.6,51.1,30.11,SSW,198,0.0,0.0,79,0.00,,CLR,0.10,VWS V14.01,2013-04-02 04:10:00,
2013-04-01 21:15:00,57.2,51.1,30.11,SSW,197,0.0,0.0,80,0.00,,CLR,0.10,VWS V14.01,2013-04-02 04:15:00,
2013-04-01 21:20:00,56.8,51.0,30.11,SSW,198,0.0,0.0,81,0.00,,CLR,0.10,VWS V14.01,2013-04-02 04:20:00,
2013-04-01 21:25:00,56.7,51.3,30.11,SSW,198,0.0,0.0,82,0.00,,CLR,0.10,VWS V14.01,2013-04-02 04:25:00,
2013-04-01 21:30:00,56.6,51.2,30.11,SSW,198,0.0,0.0,82,0.00,,CLR,0.10,VWS V14.01,2013-04-02 04:30:00,
2013-04-01 21:35:00,56.5,51.1,30.12,SSW,198,0.0,0.0,82,0.00,,CLR,0.10,VWS V14.01,2013-04-02 04:35:00,
2013-04-01 21:40:00,56.5,50.8,30.12,SSE,150,0.0,1.0,81,0.00,,CLR,0.10,VWS V14.01,2013-04-02 04:40:00,
2013-04-01 21:45:00,56.7,50.9,30.12,WSW,238,0.0,4.0,81,0.00,,CLR,0.10,VWS V14.01,2013-04-02 04:45:00,
2013-04-01 21:50:00,56.7,50.9,30.11,SSW,212,0.0,4.0,81,0.00,,CLR,0.10,VWS V14.01,2013-04-02 04:50:00,
2013-04-01 21:55:00,56.6,50.8,30.11,SSE,167,0.0,4.0,81,0.00,,CLR,0.10,VWS V14.01,2013-04-02 04:55:00,
2013-04-01 22:00:00,56.5,50.8,30.11,SW,228,0.0,4.0,81,0.00,,CLR,0.10,VWS V14.01,2013-04-02 05:00:00,
2013-04-01 22:05:00,56.4,50.7,30.11,South,173,0.0,1.0,81,0.00,,CLR,0.10,VWS V14.01,2013-04-02 05:05:00,
2013-04-01 22:10:00,56.4,51.0,30.11,South,176,1.0,2.0,82,0.00,,CLR,0.10,VWS V14.01,2013-04-02 05:10:00,
2013-04-01 22:15:00,56.3,50.9,30.11,SSW,193,0.0,2.0,82,0.00,,CLR,0.10,VWS V14.01,2013-04-02 05:15:00,
2013-04-01 22:20:00,56.2,50.8,30.11,SSW,193,0.0,2.0,82,0.00,,CLR,0.10,VWS V14.01,2013-04-02 05:20:00,
2013-04-01 22:25:00,56.1,50.7,30.11,SSW,197,0.0,2.0,82,0.00,,CLR,0.10,VWS V14.01,2013-04-02 05:25:00,
2013-04-01 22:30:00,55.8,50.7,30.11,SSW,197,0.0,2.0,83,0.00,,CLR,0.10,VWS V14.01,2013-04-02 05:30:00,
2013-04-01 22:35:00,55.5,50.4,30.11,SSW,197,0.0,0.0,83,0.00,,CLR,0.10,VWS V14.01,2013-04-02 05:35:00,
2013-04-01 22:40:00,55.1,50.0,30.11,SSW,197,0.0,0.0,83,0.00,,CLR,0.10,VWS V14.01,2013-04-02 05:40:00,
2013-04-01 22:45:00,54.8,49.7,30.11,SSW,197,0.0,0.0,83,0.00,,CLR,0.10,VWS V14.01,2013-04-02 05:45:00,
2013-04-01 22:50:00,54.6,49.5,30.11,SSW,197,0.0,0.0,83,0.00,,CLR,0.10,VWS V14.01,2013-04-02 05:50:00,
2013-04-01 22:55:00,54.2,49.5,30.11,SSW,197,0.0,0.0,84,0.00,,CLR,0.10,VWS V14.01,2013-04-02 05:55:00,
2013-04-01 23:00:00,53.8,49.4,30.10,SSW,197,0.0,0.0,85,0.00,,CLR,0.10,VWS V14.01,2013-04-02 06:00:00,
2013-04-01 23:05:00,53.6,49.5,30.10,SSW,197,0.0,0.0,86,0.00,,CLR,0.10,VWS V14.01,2013-04-02 06:05:00,
2013-04-01 23:10:00,53.4,49.3,30.10,SSW,197,0.0,0.0,86,0.00,,CLR,0.10,VWS V14.01,2013-04-02 06:10:00,
2013-04-01 23:16:00,53.4,49.3,30.10,SSW,198,0.0,0.0,86,0.00,,CLR,0.10,VWS V14.01,2013-04-02 06:16:00,
2013-04-01 23:21:00,53.4,49.3,30.11,SSW,197,0.0,0.0,86,0.00,,CLR,0.10,VWS V14.01,2013-04-02 06:21:00,
2013-04-01 23:26:00,53.4,49.0,30.10,SSW,198,0.0,0.0,85,0.00,,CLR,0.10,VWS V14.01,2013-04-02 06:26:00,
2013-04-01 23:31:00,53.5,49.1,30.11,SSW,197,0.0,0.0,85,0.00,,CLR,0.10,VWS V14.01,2013-04-02 06:31:00,
2013-04-01 23:36:00,53.3,48.9,30.11,SSW,198,0.0,0.0,85,0.00,,CLR,0.10,VWS V14.01,2013-04-02 06:36:00,
2013-04-01 23:41:00,53.2,49.4,30.11,SSW,197,0.0,0.0,87,0.00,,CLR,0.10,VWS V14.01,2013-04-02 06:41:00,
2013-04-01 23:46:00,53.0,49.2,30.10,SSW,197,0.0,0.0,87,0.00,,CLR,0.10,VWS V14.01,2013-04-02 06:46:00,
2013-04-01 23:51:00,52.9,49.1,30.11,SSW,197,0.0,0.0,87,0.00,,CLR,0.10,VWS V14.01,2013-04-02 06:51:00,
2013-04-01 23:56:00,52.6,48.8,30.11,SSW,197,0.0,0.0,87,0.00,,CLR,0.10,VWS V14.01,2013-04-02 06:56:00,